Time,TemperatureF,DewpointF,PressureIn,WindDirection,WindDirectionDegrees,WindSpeedMPH,WindSpeedGustMPH,Humidity,HourlyPrecipIn,Conditions,Clouds,dailyrainin,SoftwareType,DateUTC
2013-02-11 00:11:00,7.3,2.0,30.38,SW,229,0.0,3.0,80,0.00,,,0.00,weatherlink.com 1.10,2013-02-11 05:11:00,
2013-02-11 00:26:00,7.4,2.0,30.38,SSW,211,0.0,3.0,79,0.00,,,0.00,weatherlink.com 1.10,2013-02-11 05:26:00,
2013-02-11 00:42:00,8.0,3.0,30.38,SW,214,1.0,4.0,78,0.00,,,0.00,weatherlink.com 1.10,2013-02-11 05:42:00,
2013-02-11 00:57:00,9.1,3.0,30.37,SW,218,4.0,6.0,77,0.00,,,0.00,weatherlink.com 1.10,2013-02-11 05:57:00,
2013-02-11 01:12:00,11.2,4.0,30.36,SSW,213,3.0,6.0,72,0.00,,,0.00,weatherlink.com 1.10,2013-02-11 06:12:00,
2013-02-11 01:27:00,13.6,5.0,30.35,SW,234,3.0,7.0,68,0.00,,,0.00,weatherlink.com 1.10,2013-02-11 06:27:00,
2013-02-11 01:42:00,14.8,5.0,30.34,SSW,200,3.0,5.0,66,0.00,,,0.00,weatherlink.com 1.10,2013-02-11 06:42:00,
2013-02-11 01:57:00,15.7,5.0,30.33,SSW,198,3.0,8.0,64,0.00,,,0.00,weatherlink.com 1.10,2013-02-11 06:57:00,
2013-02-11 02:12:00,16.5,6.0,30.32,SW,224,4.0,6.0,63,0.00,,,0.00,weatherlink.com 1.10,2013-02-11 07:12:00,
2013-02-11 02:28:00,17.3,5.0,30.31,WSW,250,4.0,7.0,60,0.00,,,0.00,weatherlink.com 1.10,2013-02-11 07:28:00,
2013-02-11 02:42:00,17.9,6.0,30.31,SW,215,2.0,7.0,59,0.00,,,0.00,weatherlink.com 1.10,2013-02-11 07:42:00,
2013-02-11 02:57:00,17.9,6.0,30.30,WSW,242,0.0,8.0,59,0.00,,,0.00,weatherlink.com 1.10,2013-02-11 07:57:00,
2013-02-11 03:13:00,17.8,6.0,30.30,SW,215,0.0,3.0,60,0.00,,,0.00,weatherlink.com 1.10,2013-02-11 08:13:00,
2013-02-11 03:27:00,17.9,4.0,30.28,WSW,243,3.0,7.0,55,0.00,,,0.00,weatherlink.com 1.10,2013-02-11 08:27:00,
2013-02-11 03:43:00,18.0,5.0,30.28,South,189,0.0,3.0,56,0.00,,,0.00,weatherlink.com 1.10,2013-02-11 08:43:00,
2013-02-11 03:58:00,18.0,5.0,30.27,South,176,0.0,4.0,57,0.00,,,0.00,weatherlink.com 1.10,2013-02-11 08:58:00,
2013-02-11 04:13:00,17.8,6.0,30.25,South,173,0.0,1.0,60,0.00,,,0.00,weatherlink.com 1.10,2013-02-11 09:13:00,
2013-02-11 04:28:00,17.9,6.0,30.23,South,173,0.0,3.0,60,0.00,,,0.00,weatherlink.com 1.10,2013-02-11 09:28:00,
2013-02-11 04:43:00,18.4,5.0,30.22,SSE,163,2.0,8.0,57,0.00,,,0.00,weatherlink.com 1.10,2013-02-11 09:43:00,
2013-02-11 04:58:00,20.2,7.0,30.21,SW,232,1.0,10.0,58,0.00,,,0.00,weatherlink.com 1.10,2013-02-11 09:58:00,
2013-02-11 05:13:00,21.6,8.0,30.20,SSW,203,7.0,11.0,57,0.00,,,0.00,weatherlink.com 1.10,2013-02-11 10:13:00,
2013-02-11 05:28:00,21.1,7.0,30.19,SSW,205,11.0,13.0,55,0.00,,,0.00,weatherlink.com 1.10,2013-02-11 10:28:00,
2013-02-11 05:43:00,20.9,7.0,30.18,SSW,194,7.0,10.0,55,0.00,,,0.00,weatherlink.com 1.10,2013-02-11 10:43:00,
2013-02-11 05:59:00,22.7,7.0,30.18,South,180,2.0,12.0,52,0.00,,,0.00,weatherlink.com 1.10,2013-02-11 10:59:00,
2013-02-11 06:13:00,23.1,9.0,30.17,South,184,3.0,7.0,54,0.00,,,0.00,weatherlink.com 1.10,2013-02-11 11:13:00,
2013-02-11 06:28:00,23.2,8.0,30.16,SSW,201,12.0,12.0,53,0.00,,,0.00,weatherlink.com 1.10,2013-02-11 11:28:00,
2013-02-11 06:44:00,24.3,8.0,30.15,SSW,205,4.0,16.0,51,0.00,,,0.00,weatherlink.com 1.10,2013-02-11 11:44:00,
2013-02-11 06:59:00,23.2,8.0,30.15,South,175,10.0,12.0,52,0.00,,,0.00,weatherlink.com 1.10,2013-02-11 11:59:00,
2013-02-11 07:14:00,22.7,7.0,30.15,South,190,4.0,15.0,51,0.00,,,0.00,weatherlink.com 1.10,2013-02-11 12:14:00,
2013-02-11 07:29:00,22.9,7.0,30.14,SW,225,4.0,10.0,50,0.00,,,0.00,weatherlink.com 1.10,2013-02-11 12:29:00,
2013-02-11 07:44:00,23.3,6.0,30.12,SSW,196,5.0,16.0,48,0.00,,,0.00,weatherlink.com 1.10,2013-02-11 12:44:00,
2013-02-11 07:59:00,23.3,8.0,30.11,South,188,4.0,8.0,53,0.00,,,0.00,weatherlink.com 1.10,2013-02-11 12:59:00,
2013-02-11 08:14:00,22.7,8.0,30.11,SSW,194,4.0,10.0,54,0.00,,,0.00,weatherlink.com 1.10,2013-02-11 13:14:00,
2013-02-11 08:29:00,22.5,8.0,30.10,South,183,5.0,10.0,55,0.00,,,0.00,weatherlink.com 1.10,2013-02-11 13:29:00,
2013-02-11 08:44:00,22.7,7.0,30.09,SW,215,3.0,12.0,50,0.00,,,0.00,weatherlink.com 1.10,2013-02-11 13:44:00,
2013-02-11 08:59:00,23.3,7.0,30.07,WSW,255,2.0,10.0,49,0.00,,,0.00,weatherlink.com 1.10,2013-02-11 13:59:00,
2013-02-11 09:14:00,23.8,7.0,30.07,SSW,192,5.0,14.0,48,0.00,,,0.00,weatherlink.com 1.10,2013-02-11 14:14:00,
2013-02-11 09:30:00,23.3,7.0,30.05,SSW,200,6.0,12.0,50,0.00,,,0.00,weatherlink.com 1.10,2013-02-11 14:30:00,
2013-02-11 09:44:00,24.0,7.0,30.04,SSW,204,8.0,12.0,49,0.00,,,0.00,weatherlink.com 1.10,2013-02-11 14:44:00,
2013-02-11 09:59:00,23.9,7.0,30.03,SSW,212,11.0,14.0,48,0.00,,,0.00,weatherlink.com 1.10,2013-02-11 14:59:00,
2013-02-11 10:29:00,24.2,7.0,30.02,SSW,213,3.0,13.0,47,0.00,,,0.00,weatherlink.com 1.10,2013-02-11 15:29:00,
2013-02-11 10:45:00,24.0,8.0,30.00,South,176,3.0,10.0,51,0.00,,,0.00,weatherlink.com 1.10,2013-02-11 15:45:00,
2013-02-11 11:00:00,23.9,10.0,29.99,SW,225,8.0,12.0,55,0.00,,,0.00,weatherlink.com 1.10,2013-02-11 16:00:00,
2013-02-11 11:15:00,24.4,16.0,29.97,SSW,206,4.0,11.0,70,0.00,,,0.00,weatherlink.com 1.10,2013-02-11 16:15:00,
2013-02-11 11:30:00,23.4,19.0,29.96,SSW,198,3.0,11.0,82,0.00,,,0.00,weatherlink.com 1.10,2013-02-11 16:30:00,
2013-02-11 11:45:00,23.5,20.0,29.94,SSW,198,6.0,11.0,85,0.00,,,0.00,weatherlink.com 1.10,2013-02-11 16:45:00,
2013-02-11 12:00:00,24.1,21.0,29.93,SW,229,6.0,14.0,87,0.00,,,0.00,weatherlink.com 1.10,2013-02-11 17:00:00,
2013-02-11 12:15:00,23.9,21.0,29.91,South,184,5.0,12.0,88,0.00,,,0.00,weatherlink.com 1.10,2013-02-11 17:15:00,
2013-02-11 12:30:00,24.2,22.0,29.90,SSW,202,5.0,12.0,89,0.00,,,0.00,weatherlink.com 1.10,2013-02-11 17:30:00,
2013-02-11 12:45:00,24.4,22.0,29.89,South,186,3.0,13.0,89,0.00,,,0.00,weatherlink.com 1.10,2013-02-11 17:45:00,
2013-02-11 13:01:00,24.7,22.0,29.87,South,189,2.0,12.0,89,0.00,,,0.00,weatherlink.com 1.10,2013-02-11 18:01:00,
2013-02-11 13:16:00,25.1,22.0,29.87,SSW,196,3.0,10.0,89,0.00,,,0.00,weatherlink.com 1.10,2013-02-11 18:16:00,
2013-02-11 13:30:00,25.3,23.0,29.86,South,191,3.0,10.0,90,0.00,,,0.00,weatherlink.com 1.10,2013-02-11 18:30:00,
2013-02-11 13:45:00,25.9,23.0,29.85,SSW,196,7.0,12.0,90,0.00,,,0.00,weatherlink.com 1.10,2013-02-11 18:45:00,
2013-02-11 14:04:00,26.3,24.0,29.85,SSW,213,6.0,14.0,90,0.00,,,0.00,weatherlink.com 1.10,2013-02-11 19:04:00,
2013-02-11 14:16:00,26.8,24.0,29.84,SSW,210,2.0,11.0,90,0.00,,,0.00,weatherlink.com 1.10,2013-02-11 19:16:00,
2013-02-11 14:31:00,27.4,25.0,29.82,South,188,4.0,9.0,90,0.00,,,0.00,weatherlink.com 1.10,2013-02-11 19:31:00,
2013-02-11 14:46:00,28.2,26.0,29.80,SW,222,2.0,16.0,90,0.00,,,0.00,weatherlink.com 1.10,2013-02-11 19:46:00,
2013-02-11 15:01:00,28.7,26.0,29.80,SSW,200,7.0,12.0,89,0.00,,,0.00,weatherlink.com 1.10,2013-02-11 20:01:00,
2013-02-11 15:16:00,29.0,27.0,29.78,South,191,8.0,17.0,90,0.00,,,0.00,weatherlink.com 1.10,2013-02-11 20:16:00,
2013-02-11 15:31:00,29.8,28.0,29.77,SW,219,3.0,17.0,91,0.00,,,0.00,weatherlink.com 1.10,2013-02-11 20:31:00,
2013-02-11 15:46:00,30.5,28.0,29.76,SSW,196,4.0,9.0,91,0.00,,,0.00,weatherlink.com 1.10,2013-02-11 20:46:00,
2013-02-11 16:01:00,30.5,28.0,29.76,SW,220,2.0,13.0,91,0.00,,,0.00,weatherlink.com 1.10,2013-02-11 21:01:00,
2013-02-11 16:16:00,30.8,29.0,29.75,South,182,0.0,9.0,92,0.00,,,0.00,weatherlink.com 1.10,2013-02-11 21:16:00,
2013-02-11 16:31:00,31.2,29.0,29.75,SW,222,7.0,11.0,92,0.00,,,0.00,weatherlink.com 1.10,2013-02-11 21:31:00,
2013-02-11 16:46:00,31.4,29.0,29.73,SW,217,4.0,8.0,92,0.00,,,0.00,weatherlink.com 1.10,2013-02-11 21:46:00,
2013-02-11 17:01:00,31.2,29.0,29.73,SSW,202,3.0,7.0,91,0.00,,,0.00,weatherlink.com 1.10,2013-02-11 22:01:00,
2013-02-11 17:17:00,31.1,29.0,29.71,SW,223,5.0,7.0,92,0.00,,,0.00,weatherlink.com 1.10,2013-02-11 22:17:00,
2013-02-11 17:32:00,31.3,30.0,29.71,SSW,202,2.0,6.0,93,0.00,,,0.00,weatherlink.com 1.10,2013-02-11 22:32:00,
2013-02-11 17:47:00,31.7,30.0,29.71,SSW,203,3.0,5.0,94,0.00,,,0.00,weatherlink.com 1.10,2013-02-11 22:47:00,
2013-02-11 18:02:00,32.6,31.0,29.70,SW,215,4.0,6.0,95,0.00,,,0.00,weatherlink.com 1.10,2013-02-11 23:02:00,
2013-02-11 18:17:00,33.3,32.0,29.69,SE,125,5.0,10.0,95,0.00,,,0.00,weatherlink.com 1.10,2013-02-11 23:17:00,
2013-02-11 18:32:00,33.6,32.0,29.69,West,277,0.0,3.0,95,0.00,,,0.00,weatherlink.com 1.10,2013-02-11 23:32:00,
2013-02-11 18:47:00,33.8,33.0,29.69,West,279,0.0,3.0,95,0.00,,,0.00,weatherlink.com 1.10,2013-02-11 23:47:00,
2013-02-11 19:02:00,33.8,33.0,29.68,WSW,258,3.0,4.0,95,0.00,,,0.00,weatherlink.com 1.10,2013-02-12 00:02:00,
2013-02-11 19:17:00,33.9,32.0,29.67,SSW,205,2.0,8.0,94,0.00,,,0.00,weatherlink.com 1.10,2013-02-12 00:17:00,
2013-02-11 19:32:00,33.9,32.0,29.67,WSW,247,2.0,9.0,94,0.00,,,0.00,weatherlink.com 1.10,2013-02-12 00:32:00,
2013-02-11 19:47:00,33.7,33.0,29.67,NW,308,0.0,9.0,95,0.00,,,0.00,weatherlink.com 1.10,2013-02-12 00:47:00,
2013-02-11 20:02:00,33.5,32.0,29.67,ESE,111,0.0,4.0,95,0.00,,,0.00,weatherlink.com 1.10,2013-02-12 01:02:00,
2013-02-11 20:17:00,33.4,32.0,29.66,West,267,1.0,5.0,95,0.00,,,0.00,weatherlink.com 1.10,2013-02-12 01:17:00,
2013-02-11 20:32:00,33.4,32.0,29.65,SW,222,4.0,5.0,95,0.00,,,0.00,weatherlink.com 1.10,2013-02-12 01:32:00,
2013-02-11 20:47:00,33.4,32.0,29.65,WSW,244,1.0,6.0,95,0.00,,,0.00,weatherlink.com 1.10,2013-02-12 01:47:00,
2013-02-11 21:03:00,33.5,32.0,29.64,West,275,3.0,8.0,95,0.00,,,0.00,weatherlink.com 1.10,2013-02-12 02:03:00,
2013-02-11 21:18:00,33.5,32.0,29.64,West,281,0.0,6.0,95,0.00,,,0.00,weatherlink.com 1.10,2013-02-12 02:18:00,
2013-02-11 21:32:00,33.4,32.0,29.64,WSW,240,0.0,5.0,95,0.00,,,0.00,weatherlink.com 1.10,2013-02-12 02:32:00,
2013-02-11 21:47:00,33.4,32.0,29.64,West,276,3.0,5.0,95,0.00,,,0.00,weatherlink.com 1.10,2013-02-12 02:47:00,
2013-02-11 22:02:00,33.4,32.0,29.63,WNW,296,4.0,9.0,95,0.00,,,0.00,weatherlink.com 1.10,2013-02-12 03:02:00,
2013-02-11 22:17:00,33.4,32.0,29.62,West,265,4.0,6.0,95,0.00,,,0.00,weatherlink.com 1.10,2013-02-12 03:17:00,
2013-02-11 22:33:00,33.3,32.0,29.62,WSW,246,0.0,6.0,95,0.00,,,0.00,weatherlink.com 1.10,2013-02-12 03:33:00,
2013-02-11 22:48:00,33.1,32.0,29.61,SW,226,0.0,4.0,95,0.00,,,0.00,weatherlink.com 1.10,2013-02-12 03:48:00,
2013-02-11 23:03:00,32.9,32.0,29.60,SW,223,1.0,6.0,95,0.00,,,0.00,weatherlink.com 1.10,2013-02-12 04:03:00,
2013-02-11 23:18:00,32.8,32.0,29.59,West,265,0.0,4.0,95,0.00,,,0.00,weatherlink.com 1.10,2013-02-12 04:18:00,
2013-02-11 23:33:00,32.6,31.0,29.57,West,265,0.0,1.0,95,0.00,,,0.00,weatherlink.com 1.10,2013-02-12 04:33:00,
2013-02-11 23:48:00,32.6,32.0,29.57,South,180,0.0,1.0,96,0.00,,,0.00,weatherlink.com 1.10,2013-02-12 04:48:00,